Starlink 2060

decayed
NORAD ID: 47669 Int'l Des: 2021-012 Owner: SPXS Country: US Constellation: starlink
LEOCIRCULAR
グループ

Starlink 2060について

説明を読み込み中...

高度履歴

Altitude vs Time

uPlot chart will show altitude changes over time

軌道要素

1 47669U 21012BB 23195.73818071 .47148814 12106-4 56945-3 0 9996
2 47669 53.0584 310.3542 0031933 213.6690 301.3488 16.46421909135539
Epoch: Jul 14, 2023 • Age: 21194 hours

現在のステータス

Position data unavailable
打ち上げ日 Feb 16, 2021
運用期間 4.8 years
落下予定日 Jul 14, 2023
タイプ internet

技術仕様

分類 Payload
質量 260.00 kg
乾燥質量 248.00 kg
総質量 260.00 kg
長さ 0.20 m
直径 2.80 m
スパン 9.00 m
形状 Box + pan
製造者 SPXS
バスタイプ Starlink
フェーズステータス Reentered
所有者/国 SPXS/US

大規模コンステレーション

Loading constellations...